Location: Newark
(34.1333°N, 7.9667°W)
Time: 12:01:47
(UTC+00:00)

ISS - Pass Details

Date: 03 October 2021
Orbit: 417 x 423 km, 51.6° (Epoch: 18 October)

Event Time Altitude Azimuth Distance (km) Brightness Sun altitude
Rises 19:54:00 0° 320° (NW) 2,362 0.8 -21.6°
Reaches altitude 10° 19:56:12 10° 329° (NNW) 1,497 -0.4 -22.1°
Enters shadow 19:58:02 25° 351° (N) 875 -2.0 -22.5°
